SILO ALERT LOG
| Silo ID | Alert Type | Alert Message | Silo Type | Points | Depth (mm) | Strength | Temperature (°C) | Humidity (%) | Height (mm) | Volume (㎥) | Weight (t) | Flag | Time |
|---|---|---|---|---|---|---|---|---|---|---|---|---|---|
| DJSSD05 | Temperature | 온도센서 측정값이 0도 미만 | 평 | 842 | 2551 | 4850 | -45.4 | 43.7 | 5528 | 769.447 | 486.444 | 0 | 2024-01-10 06:39:33.000 |
| DJHNR11 | Temperature | 온도센서 측정값이 0도 미만 | 호퍼 | 115 | 2139 | 2607 | -2.9 | 74 | 8240 | 123.801 | 78.267 | 11 | 2024-01-10 06:39:32.000 |
| DJHNR01 | Humidity | 습도센서 측정값이 80% 초과 | 호퍼 | 471 | 4307 | 5057 | 3.7 | 99.9 | 11072 | 472.858 | 298.941 | 13 | 2024-01-10 06:39:32.000 |
| DJSAD08 | Humidity | 습도센서 측정값이 80% 초과 | 평 | 592 | 2537 | 4916 | 6.7 | 85 | 5042 | 717.442 | 453.567 | 12 | 2024-01-10 06:39:32.000 |
| DJSAD12 | Humidity | 습도센서 측정값이 80% 초과 | 평 | 0 | 7700 | 0 | 2.5 | 86.6 | -120 | -17.075 | 0 | 31 | 2024-01-10 06:39:32.000 |
| DJSSD09 | Temperature | 온도센서 측정값이 0도 미만 | 평 | 129 | 2927 | 3549 | -45.4 | 0 | 4752 | 661.396 | 418.135 | 11 | 2024-01-10 06:39:32.000 |
| DJSAD11 | Humidity | 습도센서 측정값이 80% 초과 | 평 | 282 | 1513 | 13172 | 1.2 | 80.6 | 6066 | 863.149 | 545.683 | 11 | 2024-01-10 06:39:31.000 |
| DJSAD07 | Humidity | 습도센서 측정값이 80% 초과 | 평 | 219 | 2594 | 3189 | 3.2 | 86.1 | 4985 | 709.434 | 448.504 | 11 | 2024-01-10 06:39:31.000 |
| DJSAD16 | Humidity | 습도센서 측정값이 80% 초과 | 평 | 87 | 6511 | 3429 | 3.4 | 80.5 | 1068 | 106.386 | 67.257 | 11 | 2024-01-10 06:39:31.000 |
| DJDJD04 | Humidity | 습도센서 측정값이 80% 초과 | 평 | 280 | 4180 | 4464 | 3 | 81.3 | 3499 | 423.956 | 268.025 | 11 | 2024-01-10 06:39:31.000 |
| DJSSD11 | Temperature | 온도센서 측정값이 0도 미만 | 호퍼 | 447 | 7387 | 148 | -1.8 | 78.1 | 3842 | 28.946 | 15.775 | 11 | 2024-01-10 06:39:31.000 |
| DJSAD17 | Humidity | 습도센서 측정값이 80% 초과 | 평 | 446 | 3114 | 4804 | 3.1 | 80.6 | 4465 | 444.636 | 281.099 | 0 | 2024-01-10 06:39:30.000 |
| DJSAD18 | Humidity | 습도센서 측정값이 80% 초과 | 평 | 114 | 1404 | 5805 | 3.9 | 80.8 | 6175 | 614.981 | 388.791 | 11 | 2024-01-10 06:39:30.000 |
| DJHNR04 | Humidity | 습도센서 측정값이 80% 초과 | 호퍼 | 0 | 15500 | 5196 | 2.1 | 80.2 | -119 | 0 | 0 | 29 | 2024-01-10 06:39:30.000 |
| DJDJD01 | Humidity | 습도센서 측정값이 80% 초과 | 평 | 85 | 9332 | 3935 | 0.9 | 80.4 | -1652 | -200.242 | 0 | 0 | 2024-01-10 06:39:30.000 |
| DJHNR13 | Temperature | 온도센서 측정값이 0도 미만 | 호퍼 | 0 | 10500 | 3109 | -1.1 | 77.2 | -120 | 0 | 0 | 0 | 2024-01-10 06:39:29.000 |
| DJHNR14 | Temperature | 온도센서 측정값이 0도 미만 | 호퍼 | 30 | 2977 | 4564 | -2 | 72.1 | 7402 | 105.726 | 66.84 | 11 | 2024-01-10 06:39:29.000 |
| DJSSD12 | Temperature | 온도센서 상태 이상 | 호퍼 | 0 | 11350 | 0 | -999 | -999 | -120 | 0 | 0 | 31 | 2024-01-10 06:39:25.000 |
| DJHNR03 | Temperature | 온도센서 상태 이상 | 호퍼 | 0 | 15500 | 0 | -999 | -999 | -119 | 0 | 0 | 31 | 2024-01-10 06:39:24.000 |
| DJHNR12 | Temperature | 온도센서 측정값이 0도 미만 | 호퍼 | 0 | 10500 | 0 | -2 | 81.1 | -120 | 0 | 0 | 31 | 2024-01-10 06:39:23.000 |
[첫 페이지] [10024] [10025] [10026] [10027] 10028 [10029] [10030] [10031] [10032] [마지막 페이지]